Location: Recife
(8.0585°S, 34.8848°W)
Time: 21:11:59
(UTC-03:00)

S-56A Canister/Altair - Pass Details

Date: 16 April 2026
Orbit: 633 x 2484 km, 38.9° (Epoch: 16 May)

Event Time Altitude Azimuth Distance (km) Brightness Sun altitude
Rises 23:10:49 0° 217° (SW) 3,047 - -86.8°
Reaches altitude 10° 23:13:02 10° 210° (SSW) 2,234 - -87.2°
Maximum altitude 23:17:53 43° 138° (SE) 1,227 - -87.6°
Drops below altitude 10° 23:24:36 10° 68° (ENE) 3,085 - -87.3°
Sets 23:28:09 0° 62° (ENE) 4,360 - -86.8°
